Location: Roc des P�zouls
(43.9667°N, 3.5500°E)
Time: 07:48:03
(UTC+00:00)

CZ-4B DEB - Pass Details

Date: 14 November 2019
Orbit: 840 x 862 km, 99.1° (Epoch: 14 December)

Event Time Altitude Azimuth Distance (km) Brightness Sun altitude
Rises 04:57:10 0° 16° (NNE) 3,407 7.5 -18.3°
Reaches altitude 10° 04:59:33 10° 18° (NNE) 2,469 6.7 -17.9°
Maximum altitude 05:05:01 75° 104° (ESE) 878 4.4 -16.9°
Drops below altitude 10° 05:10:29 10° 189° (S) 2,461 6.6 -16.0°
Sets 05:12:50 0° 191° (SSW) 3,395 7.3 -15.5°
